Oelwein, IA

4:29 PM CDT on April 28, 2017 (GMT -0500)
Oelwein Municipal

Weather History for KOLZ - May, 2013

Change the Weather History Date:

Thursday, May 2, 2013

  Actual Average Record
Temperature  
Mean Temperature 37 °F -  
Max Temperature 41 °F 64 °F 87 °F (1959)
Min Temperature 33 °F 42 °F 27 °F (1961)
Degree Days  
Heating Degree Days 28    
Moisture  
Dew Point 33 °F    
Average Humidity 92    
Maximum Humidity 100    
Minimum Humidity 76    
Precipitation  
Precipitation 0.96 in - - ()
Sea Level Pressure  
Sea Level Pressure 30.32 in    
Wind  
Wind Speed 21 mph (North)    
Max Wind Speed 28 mph    
Max Gust Speed 37 mph    
Visibility 6 miles    
Events Rain , Snow    
Averages and records for this station are not official NWS values.
T = Trace of Precipitation, MM = Missing Value Source: NWS Daily Summary

Daily Weather History Graph

Daily Weather History Graph

Search for Another Location

Airport or City:

Trip Planner

Search our weather history database for the weather conditions in past years. The results will help you decide how hot, cold, wet, or windy it might be!

Date:

Astronomy

May. 02, 2013 Rise Set
Actual Time 6:00 AM CDT 8:09 PM CDT
Civil Twilight 5:29 AM CDT 8:40 PM CDT
Nautical Twilight 4:51 AM CDT 9:18 PM CDT
Astronomical Twilight 4:09 AM CDT 10:01 PM CDT
Moon 1:58 AM CDT (5/2) 12:50 PM CDT (5/2)
Length of Visible Light 15h 10m
Length of Day
14h 08m
Waning Gibbous, 47% of the Moon is Illuminated
May 2
Waning Gibbous
May 9
New
May 17
First Quarter
May 24
Full
May 31
Last Quarter

Hourly Weather History & Observations

Time (CDT) Temp. Windchill Dew Point Humidity Pressure Visibility Wind Dir Wind Speed Gust Speed Precip Events Conditions
12:15 AM 41.0 °F 31.4 °F 33.8 °F 76% 30.29 in 10.0 mi North 21.9 mph 31.1 mph N/A   Unknown
12:35 AM 41.0 °F 30.7 °F 33.8 °F 76% 30.28 in 10.0 mi North 25.3 mph 35.7 mph N/A   Unknown
12:55 AM 39.2 °F 28.7 °F 33.8 °F 81% 30.26 in 10.0 mi North 23.0 mph 34.5 mph N/A   Unknown
1:15 AM 41.0 °F 30.7 °F 33.8 °F 76% 30.27 in 10.0 mi North 25.3 mph 31.1 mph N/A   Unknown
1:35 AM 41.0 °F 30.7 °F 33.8 °F 76% 30.28 in 10.0 mi North 25.3 mph 31.1 mph N/A   Unknown
1:55 AM 39.2 °F 28.3 °F 33.8 °F 81% 30.26 in 10.0 mi North 25.3 mph 35.7 mph N/A   Unknown
2:15 AM 39.2 °F 28.0 °F 33.8 °F 81% 30.25 in 10.0 mi North 26.5 mph 36.8 mph N/A   Unknown
2:35 AM 39.2 °F 29.0 °F 33.8 °F 81% 30.25 in 10.0 mi North 21.9 mph 31.1 mph N/A   Unknown
2:55 AM 39.2 °F 29.3 °F 33.8 °F 81% 30.25 in 10.0 mi North 20.7 mph 26.5 mph N/A   Unknown
3:15 AM 37.4 °F 26.1 °F 33.8 °F 87% 30.25 in 10.0 mi North 24.2 mph 29.9 mph N/A   Unknown
3:35 AM 37.4 °F 26.1 °F 33.8 °F 87% 30.27 in 10.0 mi North 24.2 mph 35.7 mph N/A   Unknown
3:55 AM 37.4 °F 26.4 °F 32.0 °F 81% 30.30 in 10.0 mi North 23.0 mph 29.9 mph N/A   Unknown
4:15 AM 35.6 °F 24.2 °F 35.6 °F 100% 30.31 in 10.0 mi North 21.9 mph 31.1 mph 0.02 in Rain Light Rain
4:35 AM 35.6 °F 24.2 °F 35.6 °F 100% 30.31 in 10.0 mi North 21.9 mph 34.5 mph 0.02 in   Unknown
4:55 AM 35.6 °F 24.0 °F 35.6 °F 100% 30.30 in 10.0 mi North 23.0 mph 29.9 mph 0.02 in   Unknown
5:15 AM 35.6 °F 23.2 °F 33.8 °F 93% 30.30 in 10.0 mi North 26.5 mph 35.7 mph N/A Rain Light Rain
5:35 AM 35.6 °F 23.2 °F 33.8 °F 93% 30.31 in 5.0 mi North 26.5 mph 34.5 mph 0.03 in Rain Light Rain
5:55 AM 35.6 °F 25.5 °F 33.8 °F 93% 30.35 in 10.0 mi North 17.3 mph 29.9 mph 0.03 in Rain Rain
6:15 AM 35.6 °F 23.0 °F 33.8 °F 93% 30.28 in 2.0 mi NNE 27.6 mph 32.2 mph 0.04 in Rain Light Rain
6:35 AM 35.6 °F 24.0 °F 33.8 °F 93% 30.31 in 2.0 mi North 23.0 mph 31.1 mph 0.13 in Snow Light Snow
6:55 AM 35.6 °F 24.2 °F 33.8 °F 93% 30.31 in 1.5 mi NNE 21.9 mph 31.1 mph 0.22 in Snow Light Snow
7:15 AM 35.6 °F 25.2 °F 33.8 °F 93% 30.32 in 1.5 mi NNE 18.4 mph 28.8 mph 0.07 in Snow Light Snow
7:35 AM 35.6 °F 26.2 °F 33.8 °F 93% 30.35 in 2.5 mi North 15.0 mph 25.3 mph 0.14 in Rain Light Rain
7:55 AM 35.6 °F 26.6 °F 33.8 °F 93% 30.37 in 2.0 mi North 13.8 mph 25.3 mph 0.24 in Snow Snow
8:15 AM 35.6 °F 25.2 °F 33.8 °F 93% 30.34 in 1.5 mi North 18.4 mph 26.5 mph 0.13 in Snow Light Snow
8:35 AM 35.6 °F 24.8 °F 33.8 °F 93% 30.33 in 3.0 mi North 19.6 mph 24.2 mph 0.24 in Snow Snow
8:55 AM 35.6 °F 24.5 °F 33.8 °F 93% 30.33 in 5.0 mi North 20.7 mph 27.6 mph 0.27 in Rain Light Rain
9:15 AM 35.6 °F 25.9 °F 33.8 °F 93% 30.36 in 5.0 mi North 16.1 mph 25.3 mph 0.02 in Rain Light Rain
9:35 AM 35.6 °F 26.6 °F 33.8 °F 93% 30.35 in 4.0 mi North 13.8 mph 29.9 mph 0.05 in Rain Light Rain
9:55 AM 35.6 °F 24.8 °F 33.8 °F 93% 30.35 in 3.0 mi North 19.6 mph 28.8 mph 0.07 in Rain Light Rain
10:15 AM 35.6 °F 24.8 °F 33.8 °F 93% 30.35 in 7.0 mi North 19.6 mph 26.5 mph N/A Rain Rain
10:35 AM 35.6 °F 24.8 °F 33.8 °F 93% 30.35 in 10.0 mi North 19.6 mph 27.6 mph 0.01 in Rain Light Rain
10:55 AM 35.6 °F 24.5 °F 33.8 °F 93% 30.36 in 10.0 mi North 20.7 mph 26.5 mph 0.01 in   Light Drizzle
11:15 AM 35.6 °F 25.5 °F 33.8 °F 93% 30.36 in 5.0 mi North 17.3 mph 26.5 mph N/A Rain Rain
11:35 AM 35.6 °F 24.0 °F 33.8 °F 93% 30.37 in 10.0 mi North 23.0 mph 28.8 mph 0.01 in Rain Light Rain
11:55 AM 33.8 °F 21.9 °F 33.8 °F 100% 30.36 in 10.0 mi North 21.9 mph 29.9 mph 0.01 in   Light Drizzle
12:15 PM 33.8 °F 21.0 °F 33.8 °F 100% 30.37 in 7.0 mi North 25.3 mph 32.2 mph N/A   Drizzle
12:35 PM 33.8 °F 22.2 °F 33.8 °F 100% 30.36 in 4.0 mi North 20.7 mph 31.1 mph N/A Rain Rain
12:55 PM 33.8 °F 21.6 °F 33.8 °F 100% 30.36 in 5.0 mi North 23.0 mph 29.9 mph N/A Rain Light Rain
1:15 PM 33.8 °F 21.6 °F 33.8 °F 100% 30.35 in 10.0 mi North 23.0 mph 32.2 mph N/A   Unknown
1:35 PM 35.6 °F 23.7 °F 33.8 °F 93% 30.34 in 10.0 mi North 24.2 mph 32.2 mph N/A   Light Drizzle
1:55 PM 35.6 °F 24.2 °F 33.8 °F 93% 30.36 in 10.0 mi North 21.9 mph 31.1 mph N/A   Unknown
2:15 PM 35.6 °F 24.5 °F 33.8 °F 93% 30.35 in 4.0 mi North 20.7 mph 28.8 mph N/A Rain Light Rain
2:35 PM 33.8 °F 22.5 °F 33.8 °F 100% 30.36 in 7.0 mi North 19.6 mph 28.8 mph 0.01 in   Light Drizzle
2:55 PM 35.6 °F 24.2 °F 33.8 °F 93% 30.36 in 7.0 mi North 21.9 mph 26.5 mph 0.01 in Rain Light Rain
3:15 PM 33.8 °F 22.5 °F 33.8 °F 100% 30.37 in 7.0 mi North 19.6 mph 26.5 mph N/A Rain Light Rain
3:35 PM 33.8 °F 21.9 °F 33.8 °F 100% 30.36 in 7.0 mi North 21.9 mph 26.5 mph 0.01 in Rain Rain
3:55 PM 33.8 °F 21.9 °F 33.8 °F 100% 30.35 in 10.0 mi North 21.9 mph 27.6 mph 0.01 in   Unknown
4:15 PM 33.8 °F 22.2 °F 32.0 °F 93% 30.35 in 2.0 mi North 20.7 mph 27.6 mph 0.01 in Rain Rain
4:35 PM 33.8 °F 21.9 °F 32.0 °F 93% 30.34 in 3.0 mi North 21.9 mph 26.5 mph 0.02 in Rain Light Rain
4:55 PM 33.8 °F 21.9 °F 32.0 °F 93% 30.33 in 0.8 mi North 21.9 mph 29.9 mph 0.02 in Snow Light Snow
5:15 PM 33.8 °F 23.2 °F 32.0 °F 93% 30.33 in 1.2 mi North 17.3 mph 24.2 mph 0.01 in Snow Light Snow
5:35 PM 33.8 °F 22.5 °F 32.0 °F 93% 30.31 in 2.0 mi North 19.6 mph 28.8 mph 0.02 in   Unknown
5:55 PM 33.8 °F 22.2 °F 32.0 °F 93% 30.31 in 5.0 mi North 20.7 mph 26.5 mph 0.04 in   Unknown
6:15 PM 33.8 °F 22.2 °F 32.0 °F 93% 30.32 in 5.0 mi North 20.7 mph 24.2 mph 0.01 in   Unknown
6:35 PM 33.8 °F 22.5 °F 32.0 °F 93% 30.32 in 1.5 mi North 19.6 mph 24.2 mph 0.01 in Snow Light Snow
6:55 PM 33.8 °F 23.5 °F 32.0 °F 93% 30.33 in 1.8 mi North 16.1 mph 21.9 mph 0.01 in Snow Light Snow
7:15 PM 33.8 °F 23.9 °F 32.0 °F 93% 30.33 in 1.8 mi North 15.0 mph - N/A Snow Light Snow
7:35 PM 33.8 °F 22.8 °F 32.0 °F 93% 30.32 in 2.0 mi North 18.4 mph 23.0 mph N/A Snow Light Snow
7:55 PM 33.8 °F 23.5 °F 32.0 °F 93% 30.33 in 2.0 mi North 16.1 mph - N/A Snow Light Snow
8:15 PM 33.8 °F 23.5 °F 32.0 °F 93% 30.32 in 3.0 mi North 16.1 mph 23.0 mph N/A Snow Light Snow
8:35 PM 33.8 °F 23.5 °F 32.0 °F 93% 30.32 in 7.0 mi North 16.1 mph 24.2 mph N/A   Unknown
8:55 PM 33.8 °F 24.8 °F 32.0 °F 93% 30.34 in 10.0 mi North 12.7 mph 18.4 mph N/A   Unknown
9:15 PM 33.8 °F 23.9 °F 32.0 °F 93% 30.33 in 4.0 mi North 15.0 mph 20.7 mph N/A Snow Light Snow
9:35 PM 33.8 °F 23.9 °F 32.0 °F 93% 30.32 in 2.0 mi North 15.0 mph 20.7 mph N/A Snow Light Snow
9:55 PM 33.8 °F 23.2 °F 32.0 °F 93% 30.31 in 2.5 mi North 17.3 mph 21.9 mph N/A Snow Light Snow
10:15 PM 33.8 °F 22.8 °F 32.0 °F 93% 30.29 in 7.0 mi North 18.4 mph 21.9 mph N/A Snow Light Snow
10:35 PM 33.8 °F 23.5 °F 32.0 °F 93% 30.31 in 10.0 mi North 16.1 mph 20.7 mph N/A   Unknown
10:55 PM 33.8 °F 23.9 °F 32.0 °F 93% 30.29 in 10.0 mi North 15.0 mph - N/A   Unknown
11:15 PM 33.8 °F 23.5 °F 32.0 °F 93% 30.29 in 10.0 mi North 16.1 mph 20.7 mph N/A   Unknown
11:35 PM 33.8 °F 22.2 °F 32.0 °F 93% 30.28 in 10.0 mi North 20.7 mph 25.3 mph N/A   Unknown
11:55 PM 33.8 °F 23.5 °F 32.0 °F 93% 30.28 in 7.0 mi North 16.1 mph 23.0 mph N/A   Unknown